DW0226 Weather Reports


Display with metric or nautical units.
time (UTC)temp
F
wind
direction
speed
MPH
gust
MPH
rain 1hr
in
rain 24hr
in
rain mn
in
humidity
%
barometer
mb
20260904124516 77 0.0 2.0 0.00 3.10 1.86 98 1013.2
20260904123516 77 0.0 0.0 0.00 3.10 1.86 99 1013.3
20260904122557 76 0.0 0.0 0.01 3.10 1.86 98 1013.2
20260904121516 76 0.0 0.0 0.01 3.10 1.86 99 1013.3
20260904120517 76 0.0 0.0 0.01 3.10 1.86 99 1013.6
20260904115516 75 0.0 0.0 0.01 3.10 1.86 99 1013.5
20260904114539 74 0.0 0.0 0.01 3.10 1.86 99 1013.2
20260904113539 73 0.0 0.0 0.01 3.10 1.86 99 1013.2
20260904112516 72 0.0 0.0 0.00 3.09 1.85 98 1013.3
20260904111516 72 0.0 0.0 0.00 3.09 1.85 98 1012.7
20260904110516 72 0.0 0.0 0.00 3.09 1.85 98 1012.5
20260904105559 71 0.0 0.0 0.00 3.09 1.85 98 1012.3
20260904104516 71 0.0 0.0 0.00 3.09 1.85 98 1012.2
20260904103516 71 0.0 0.0 0.00 3.09 1.85 97 1012.2
20260904102516 71 0.0 0.0 0.00 3.09 1.85 97 1012.1
20260904101536 71 0.0 0.0 0.00 3.09 1.85 97 1012.2
20260904100516 71 0.0 0.0 0.00 3.09 1.85 97 1012.0
20260904095536 72 0.0 0.0 0.00 3.09 1.85 97 1011.9
20260904094515 72 0.0 0.0 0.00 3.09 1.85 97 1011.9
20260904093515 72 0.0 0.0 0.00 3.09 1.85 97 1012.0
20260904092516 72 0.0 0.0 0.00 3.09 1.85 97 1012.2
20260904091536 72 0.0 0.0 0.00 3.09 1.85 97 1012.2
20260904090516 72 0.0 0.0 0.00 3.09 1.85 97 1012.1
20260904085516 72 0.0 0.0 0.00 3.09 1.85 97 1012.2
20260904084516 72 0.0 0.0 0.00 3.09 1.85 97 1012.1
20260904083536 72 0.0 0.0 0.00 3.09 1.85 97 1012.2
20260904082515 72 0.0 0.0 0.00 3.09 1.85 97 1012.2
20260904082016 72 0.0 0.0 0.00 3.09 1.85 97 1012.3
20260904081036 72 0.0 0.0 0.00 3.09 1.85 97 1012.2
20260904080016 73 0.0 0.0 0.00 3.09 1.85 97 1012.0
20260904075056 73 0.0 0.0 0.00 3.09 1.85 97 1012.0
20260904074017 73 0.0 0.0 0.00 3.09 1.85 97 1012.0
20260904073018 73 0.0 0.0 0.00 3.09 1.85 97 1012.1
20260904072015 73 0.0 0.0 0.00 3.09 1.85 97 1012.1
20260904071515 73 0.0 0.0 0.00 3.09 1.85 97 1011.9
20260904070516 73 0.0 0.0 0.00 3.09 1.85 97 1011.6
20260904065516 73 0.0 0.0 0.00 3.09 1.85 97 1011.4
20260904064515 73 0.0 0.0 0.01 3.09 1.85 97 1011.5
20260904063516 73 0.0 0.0 0.14 3.09 1.85 96 1011.6
20260904062515 73 0.0 0.0 0.28 3.09 1.85 96 1011.4
20260904061515 73 0.0 0.0 0.95 3.09 1.85 96 1012.1
20260904061016 73 0.0 0.0 1.33 3.09 1.85 96 1012.6
20260904060015 73 0.0 0.0 1.68 3.09 1.85 96 1013.0
20260904055016 73 0.0 0.0 1.83 3.09 1.85 96 1013.2
20260904054016 73 0.0 1.0 1.80 3.06 1.82 96 1013.9
20260904053015 73 68 1.0 7.0 1.60 2.86 1.62 96 1014.6
20260904052015 73 68 3.0 10.0 1.37 2.62 1.38 95 1014.7
20260904051016 73 0.0 4.0 0.52 1.76 0.52 95 1015.3
20260904050016 73 0.0 4.0 0.17 1.41 0.17 95 1014.4
20260904045037 73 0.0 2.0 0.06 1.26 0.02 95 1014.4
20260904044019 73 0.0 0.0 0.32 1.26 0.02 94 1013.0
20260904043015 73 68 1.0 5.0 0.57 1.26 0.02 94 1012.1
20260904042116 73 0.0 1.0 1.17 1.25 0.01 94 1012.1
20260904041056 73 0.0 1.0 1.24 1.24 0.00 93 1012.2
20260904040016 73 90 3.0 11.0 1.24 1.24 0.00 92 1011.9
20260904035017 74 0.0 1.0 1.20 1.20 1.20 92 1012.6
20260904034016 76 0.0 6.0 0.94 0.94 0.94 89 1013.7
20260904033037 76 180 10.0 23.0 0.69 0.69 0.70 86 1013.7
20260904032016 78 315 3.0 13.0 0.08 0.08 0.08 91 1013.4
20260904031017 79 248 1.0 5.0 0.00 0.00 0.00 95 1012.6
20260904030023 78 270 1.0 3.0 0.00 0.00 0.00 94 1012.5
20260904025016 78 0.0 0.0 0.00 0.00 0.00 94 1012.1
20260904024020 78 0.0 0.0 0.00 0.00 0.00 94 1012.3
20260904023019 78 0.0 0.0 0.00 0.00 0.00 94 1012.3
20260904022017 78 0.0 0.0 0.00 0.00 0.00 94 1012.5
20260904021016 78 0.0 0.0 0.00 0.00 0.00 93 1012.6
20260904020036 78 0.0 0.0 0.00 0.00 0.00 93 1012.4
20260904015016 78 0.0 0.0 0.00 0.00 0.00 92 1012.4
20260904014017 79 0.0 0.0 0.00 0.00 0.00 92 1012.5
20260904013016 79 0.0 0.0 0.00 0.00 0.00 92 1012.6
20260904012016 79 0.0 0.0 0.00 0.00 0.00 91 1012.8
20260904011017 80 0.0 0.0 0.00 0.00 0.00 91 1013.0
20260904010018 80 0.0 0.0 0.00 0.00 0.00 91 1013.2
20260904005037 80 0.0 0.0 0.00 0.00 0.00 90 1013.3
20260904004037 81 0.0 0.0 0.00 0.00 0.00 89 1013.2
20260904003016 81 0.0 0.0 0.00 0.00 0.00 88 1013.3
20260904002021 82 0.0 0.0 0.00 0.00 0.00 88 1013.2
20260904001058 83 0.0 0.0 0.00 0.00 0.00 86 1012.8
20260904000018 83 0.0 0.0 0.00 0.00 0.00 85 1012.6
20260903235016 84 0.0 0.0 0.00 0.00 0.00 84 1012.6
20260903234016 85 0.0 0.0 0.00 0.00 0.00 82 1012.6
20260903233017 86 0.0 0.0 0.00 0.00 0.00 81 1012.6
20260903232017 87 0.0 0.0 0.00 0.00 0.00 81 1012.5
20260903231022 88 0.0 0.0 0.00 0.00 0.00 80 1012.5
20260903230017 89 0.0 0.0 0.00 0.00 0.00 78 1012.4
20260903225018 89 0.0 1.0 0.00 0.00 0.00 77 1012.2
20260903224016 89 0.0 2.0 0.00 0.00 0.00 77 1012.2
20260903223016 89 248 2.0 4.0 0.00 0.00 0.00 75 1012.2
20260903222016 89 270 1.0 2.0 0.00 0.00 0.00 75 1012.0
20260903221016 90 270 1.0 5.0 0.00 0.00 0.00 74 1012.4
20260903220016 90 270 1.0 4.0 0.00 0.00 0.00 76 1012.3
20260903215017 89 248 3.0 4.0 0.00 0.00 0.00 74 1012.5
20260903214017 90 293 2.0 5.0 0.00 0.00 0.00 74 1012.5
20260903213016 90 225 1.0 3.0 0.00 0.00 0.00 76 1012.6
20260903212059 90 270 3.0 6.0 0.00 0.00 0.00 75 1012.5
20260903211017 90 225 2.0 3.0 0.00 0.00 0.00 75 1012.5
20260903210016 90 270 3.0 6.0 0.00 0.00 0.00 76 1012.6
20260903205024 90 248 3.0 5.0 0.00 0.00 0.00 75 1012.7
20260903204017 90 248 1.0 4.0 0.00 0.00 0.00 75 1012.8
20260903203016 90 270 1.0 3.0 0.00 0.00 0.00 75 1013.0
20260903202021 89 270 1.0 5.0 0.00 0.00 0.00 76 1013.1
20260903201016 89 248 2.0 5.0 0.00 0.00 0.00 75 1013.3
20260903200037 89 293 2.0 5.0 0.00 0.00 0.00 74 1013.2
20260903195036 89 270 2.0 4.0 0.00 0.00 0.00 74 1013.3
20260903194016 88 270 2.0 4.0 0.00 0.00 0.00 75 1013.7
20260903193017 87 248 3.0 6.0 0.00 0.00 0.00 76 1013.7
20260903192016 87 248 3.0 5.0 0.00 0.00 0.00 78 1013.4
20260903191016 86 248 3.0 6.0 0.00 0.01 0.00 78 1013.6
20260903190037 87 248 4.0 7.0 0.00 0.02 0.00 78 1013.9
20260903185016 87 270 3.0 6.0 0.00 0.04 0.00 79 1014.0
20260903184016 88 270 3.0 6.0 0.00 0.04 0.00 78 1014.1
20260903183036 88 270 3.0 6.0 0.00 0.04 0.00 77 1014.3
20260903182016 88 248 1.0 6.0 0.00 0.04 0.00 76 1014.2
20260903181016 88 270 1.0 4.0 0.00 0.04 0.00 79 1014.4
20260903180018 87 293 2.0 5.0 0.00 0.04 0.00 80 1014.8
20260903175036 87 293 3.0 6.0 0.00 0.04 0.00 79 1015.1
20260903174016 87 270 4.0 7.0 0.00 0.04 0.00 79 1014.8
20260903173016 87 270 2.0 4.0 0.00 0.04 0.00 79 1015.0
20260903172017 87 225 3.0 5.0 0.00 0.04 0.00 79 1015.0
20260903171016 86 270 3.0 7.0 0.00 0.04 0.00 79 1015.3
20260903170017 87 270 4.0 6.0 0.00 0.04 0.00 82 1015.2
20260903165057 86 293 1.0 4.0 0.00 0.04 0.00 81 1015.3
20260903164016 86 270 3.0 5.0 0.00 0.04 0.00 81 1015.6
20260903163016 86 270 2.0 5.0 0.00 0.04 0.00 81 1015.6
20260903162016 85 270 2.0 5.0 0.00 0.04 0.00 81 1015.7
20260903161016 86 293 3.0 6.0 0.00 0.04 0.00 82 1015.8
20260903160016 85 248 1.0 3.0 0.00 0.04 0.00 83 1016.0
20260903155016 85 248 2.0 4.0 0.00 0.04 0.00 83 1015.9
20260903154016 84 225 3.0 5.0 0.00 0.04 0.00 85 1015.9
20260903153016 83 270 2.0 6.0 0.00 0.04 0.00 86 1015.8
20260903152016 83 270 3.0 6.0 0.00 0.04 0.00 87 1015.8
20260903151016 84 248 1.0 5.0 0.00 0.04 0.00 85 1015.8
20260903150016 84 203 1.0 4.0 0.00 0.04 0.00 86 1015.5
20260903145058 84 225 3.0 9.0 0.00 0.04 0.00 85 1015.3
20260903144016 84 158 3.0 5.0 0.00 0.04 0.00 84 1015.4
20260903143016 84 90 2.0 5.0 0.00 0.04 0.00 87 1015.6
20260903142016 82 90 2.0 5.0 0.00 0.04 0.00 88 1015.7
20260903141016 81 90 3.0 6.0 0.00 0.04 0.00 89 1015.7
20260903140016 80 90 2.0 4.0 0.00 0.04 0.00 91 1015.9
20260903135016 80 0.0 3.0 0.00 0.04 0.00 91 1015.8
20260903134017 80 68 1.0 3.0 0.00 0.04 0.00 91 1015.9
20260903133016 80 0.0 3.0 0.00 0.04 0.00 92 1016.0
20260903132016 80 0.0 4.0 0.00 0.04 0.00 93 1016.3
20260903131036 80 0.0 1.0 0.00 0.04 0.00 95 1016.4
20260903130017 79 0.0 2.0 0.00 0.04 0.00 96 1016.6